This demonstration page uses our WeatherBlox Daily Observations layout. Learn more.

Left ArrowRight Arrow

34.74481, -87.66753

Hourly Observations for December 1, 2018

Temp ( °F °C ) Dew Point ( °F °C ) Humidity (%) Winds ( mph kmh ) Pressure ( in mb ) Visibility ( mi km ) Precip ( " mm )
12:32 am 00:32 Mostly Cloudy 62 16.7 56 13.3 80 80 SE 9 15 29.83 1010 10 16 0.00 0.00
12:53 am 00:53 Cloudy 62 16.7 56 13.3 80 80 SE 9 15 29.80 1009 10 16 0.00 0.00
1:53 am 01:53 Cloudy with Light Rain 61 16.1 57 13.9 87 87 SE 8 13 29.78 1008 10 16 0.00 0.03
2:33 am 02:33 Cloudy with Light Rain 61 16.1 57 13.9 87 87 SE 17 28 29.77 1008 10 16 0.04 1.02
2:53 am 02:53 Cloudy with Light Rain 61 16.1 56 13.3 84 84 SE 21 33 29.72 1007 10 16 0.12 3.05
3:08 am 03:08 Cloudy with Heavy Rain 60 15.6 56 13.3 86 86 SSE 18 30 29.74 1007 9 14 0.05 1.27
3:25 am 03:25 Cloudy with Rain 60 15.6 56 13.3 86 86 SE 13 20 29.74 1007 10 16 0.08 2.03
3:53 am 03:53 Cloudy with Light Rain 60 15.6 56 13.3 86 86 SE 14 22 29.72 1006 10 16 0.11 2.79
4:00 am 04:00 Cloudy with Heavy Rain 59 15 56 13.3 90 90 SE 13 20 29.74 1007 8 13 0.03 0.76
4:24 am 04:24 Cloudy with Heavy Rain 59 15 57 13.9 93 93 SSE 9 15 29.74 1007 6 10 0.13 3.30
4:53 am 04:53 Cloudy with Light Rain 59 15 56 13.3 90 90 SE 15 24 29.71 1006 10 16 0.16 4.06
5:03 am 05:03 Cloudy with Light Rain 59 15 56 13.3 90 90 SE 14 22 29.71 1006 10 16 0.00 0.03
5:53 am 05:53 Cloudy 59 15 56 13.3 90 90 SE 16 26 29.71 1006 10 16 0.00 0.03
6:53 am 06:53 Cloudy 60 15.6 57 13.9 90 90 SSE 18 30 29.70 1006 10 16 0.05 1.27
7:46 am 07:46 Cloudy 60 15.6 56 13.3 86 86 SSE 20 31 29.71 1006 10 16 0.00 0.03
7:53 am 07:53 Cloudy 60 15.6 56 13.3 86 86 SSE 21 33 29.69 1006 10 16 0.00 0.03
8:43 am 08:43 Cloudy with Light Rain 60 15.6 56 13.3 86 86 SSE 17 28 29.71 1006 10 16 0.00 0.03
8:53 am 08:53 Cloudy with Light Rain 60 15.6 56 13.3 86 86 SSE 18 30 29.69 1005 10 16 0.01 0.25
9:53 am 09:53 Cloudy with Light Rain 61 16.1 57 13.9 87 87 SSE 15 24 29.68 1005 10 16 0.01 0.25
10:53 am 10:53 Cloudy 61 16.1 58 14.4 90 90 SSE 15 24 29.65 1004 10 16 0.01 0.25
11:08 am 11:08 Cloudy 62 16.7 58 14.4 86 86 SSE 17 28 29.65 1004 10 16 0.00 0.00
11:53 am 11:53 Cloudy 62 16.7 59 15 90 90 SSE 17 28 29.61 1003 10 16 0.00 0.00
12:53 pm 12:53 Cloudy 63 17.2 59 15 87 87 SSE 14 22 29.58 1002 10 16 0.00 0.00
1:53 pm 13:53 Cloudy 63 17.2 60 15.6 90 90 SSE 13 20 29.56 1001 10 16 0.00 0.00
2:53 pm 14:53 Cloudy 64 17.8 61 16.1 90 90 SSE 14 22 29.54 1001 10 16 0.00 0.00
3:53 pm 15:53 Cloudy 64 17.8 61 16.1 90 90 SSE 15 24 29.54 1000 10 16 0.00 0.00
4:22 pm 16:22 Cloudy with Nearby Thunderstorms 64 17.8 61 16.1 90 90 SSE 14 22 29.53 1000 10 16 0.00 0.00
4:37 pm 16:37 Cloudy 64 17.8 62 16.7 93 93 SSE 14 22 29.53 1000 10 16 0.00 0.00
4:53 pm 16:53 Cloudy 64 17.8 62 16.7 93 93 SSE 13 20 29.53 1000 10 16 0.00 0.00
5:12 pm 17:12 Cloudy with Nearby Thunderstorms 64 17.8 62 16.7 93 93 SSE 15 24 29.56 1001 10 16 0.02 0.51
5:22 pm 17:22 Cloudy with Strong Thunderstorms 65 18.3 63 17.2 93 93 S 24 39 29.53 1000 3 5 0.17 4.32
5:37 pm 17:37 Cloudy with Light Rain 65 18.3 63 17.2 93 93 SSE 20 31 29.56 1001 9 14 0.20 5.08
5:53 pm 17:53 Cloudy 65 18.3 63 17.2 93 93 SSE 10 17 29.54 1000 10 16 0.20 5.08
6:11 pm 18:11 Mostly Cloudy 65 18.3 63 17.2 93 93 SSE 9 15 29.56 1001 10 16 0.00 0.00
6:20 pm 18:20 Mostly Clear 64 17.8 62 16.7 93 93 SSE 9 15 29.56 1001 10 16 0.00 0.00
6:53 pm 18:53 Clear 64 17.8 62 16.7 93 93 SSE 6 9 29.53 1000 10 16 0.00 0.00
7:53 pm 19:53 Partly Cloudy 66 18.9 63 17.2 90 90 S 10 17 29.54 1001 10 16 0.00 0.00
8:10 pm 20:10 Cloudy with Light Rain 65 18.3 63 17.2 93 93 WNW 14 22 29.59 1002 8 13 0.05 1.27
8:19 pm 20:19 Cloudy with Light Rain 67 19.4 62 16.7 84 84 WSW 15 24 29.59 1002 8 13 0.07 1.78
8:28 pm 20:28 Cloudy with Light Rain 67 19.4 61 16.1 81 81 WSW 12 19 29.59 1002 10 16 0.07 1.78
8:53 pm 20:53 Mostly Clear 66 18.9 62 16.7 87 87 WSW 8 13 29.57 1001 10 16 0.07 1.78
9:53 pm 21:53 Clear 62 16.7 59 15 90 90 SSW 6 9 29.59 1002 10 16 0.00 0.00
10:53 pm 22:53 Clear 61 16.1 57 13.9 87 87 SW 6 9 29.60 1003 10 16 0.00 0.00
11:53 pm 23:53 Clear 56 13.3 53 11.7 90 90 S 3 6 29.63 1003 10 16 0.00 0.00

Powered by AerisWeather